This demonstration page uses our WeatherBlox Daily Observations layout. Learn more.

Left ArrowRight Arrow

Hourly Observations for March 14, 2020

Temp ( °F °C ) Dew Point ( °F °C ) Humidity (%) Winds ( mph kmh ) Pressure ( in mb ) Visibility ( mi km ) Precip ( " mm )
12:51 am 00:51 Clear 43 6.1 40 4.4 89 89 N 6 9 30.03 1017 10 16 0.00 0.00
1:51 am 01:51 Mostly Clear 42 5.6 40 4.4 92 92 ENE 7 11 30.04 1017 10 16 0.00 0.00
2:51 am 02:51 Clear 41 5 39 3.9 93 93 ENE 7 11 30.03 1017 10 16 0.00 0.00
3:51 am 03:51 Clear 40 4.4 37 2.8 89 89 Calm 30.02 1017 10 16 0.00 0.00
4:51 am 04:51 Clear 40 4.4 37 2.8 89 89 Calm 30.04 1017 10 16 0.00 0.00
5:51 am 05:51 Clear 39 3.9 36 2.2 89 89 Calm 30.06 1018 10 16 0.00 0.00
6:51 am 06:51 Cloudy 40 4.4 38 3.3 93 93 NE 3 6 30.09 1019 10 16 0.00 0.00
7:51 am 07:51 Mostly Sunny 46 7.8 41 5 83 83 Calm 30.09 1019 10 16 0.00 0.00
8:51 am 08:51 Mostly Cloudy 51 10.6 42 5.6 71 71 SE 8 13 30.10 1019 10 16 0.00 0.00
9:51 am 09:51 Mostly Sunny 56 13.3 43 6.1 62 62 SE 7 11 30.09 1019 10 16 0.00 0.00
10:51 am 10:51 Sunny 61 16.1 42 5.6 50 50 VRB 6 9 30.09 1019 10 16 0.00 0.00
11:51 am 11:51 Sunny 64 17.8 41 5 43 43 ESE 9 15 30.08 1019 10 16 0.00 0.00
12:51 pm 12:51 Sunny 65 18.3 38 3.3 37 37 SSE 8 13 30.05 1018 10 16 0.00 0.00
1:51 pm 13:51 Sunny 67 19.4 37 2.8 33 33 undefined N/A 30.02 1017 10 16 0.00 0.00
2:51 pm 14:51 Sunny 69 20.6 35 1.7 29 29 SSW 7 11 30.00 1016 10 16 0.00 0.00
3:51 pm 15:51 Sunny 70 21.1 35 1.7 28 28 SSE 10 17 30.00 1016 10 16 0.00 0.00
4:51 pm 16:51 Sunny 71 21.7 35 1.7 27 27 Calm 29.98 1015 10 16 0.00 0.00
5:51 pm 17:51 Sunny 69 20.6 33 0.6 26 26 S 3 6 30.00 1016 10 16 0.00 0.00
6:51 pm 18:51 Clear 61 16.1 37 2.8 41 41 ENE 7 11 30.02 1017 10 16 0.00 0.00
7:51 pm 19:51 Clear 57 13.9 37 2.8 47 47 NE 7 11 30.01 1016 10 16 0.00 0.00
8:51 pm 20:51 Clear 57 13.9 37 2.8 47 47 WSW 6 9 30.03 1017 10 16 0.00 0.00
9:51 pm 21:51 Clear 52 11.1 39 3.9 61 61 NE 6 9 30.04 1017 10 16 0.00 0.00
10:51 pm 22:51 Clear 50 10 38 3.3 63 63 Calm 30.04 1017 10 16 0.00 0.00
11:51 pm 23:51 Clear 48 8.9 39 3.9 71 71 SE 5 7 30.03 1017 10 16 0.00 0.00

Powered by AerisWeather